Location: Melque
(41.0517°N, 4.4694°W)
Time: 19:09:53
(UTC+00:00)

Meteor 1-20 Rocket - Pass Details

Date: 16 March 2026
Orbit: 817 x 891 km, 81.2° (Epoch: 14 April)

Event Time Altitude Azimuth Distance (km) Brightness Sun altitude
Rises 03:35:48 0° 10° (N) 3,451 7.9 -32.1°
Reaches altitude 10° 03:40:24 10° 44° (NE) 2,487 7.4 -31.3°
Maximum altitude 03:42:04 11° 61° (ENE) 2,387 7.4 -31.1°
Drops below altitude 10° 03:43:44 10° 79° (E) 2,467 7.4 -30.8°
Sets 03:48:12 0° 113° (ESE) 3,376 7.9 -30.0°
